[[{"header":{"parameterUnit":"m.s-1","parameterCategory":1,"la1":30.2991,"la2":30.254,"lo1":-89.0895,"lo2":-89.0444,"dy":0.0017,"dx":0.0017,"nx":28,"ny":28,"refTime":"2025-05-01T09:00:00:Z","depth":0,"parameterNumber":2,"parameterNumberName":"U-component_of_WINDS"},"data":[0,0,0,0,0,0,0,0,0,0,0,0,0,0,0,0,0,0,0,0,0,0,0,0,0,0,0,0,0,0,0,0,0,0,0,0,0,0,0,0,0,0,0,0,0,0,0,0,0,0,0,0,0,0,0,0,0,0,-1.5958,-1.5958,0,-1.5967,-1.5967,-1.5967,-1.5948,-1.5947,-1.5946,-1.5946,-1.5957,-1.5957,-1.5958,0,0,0,0,0,0,0,0,0,0,0,0,0,-1.5925,-1.5926,-1.5958,-1.5958,-1.5958,-1.5967,-1.5967,-1.5967,-1.5948,-1.5947,-1.5946,-1.5945,-1.5956,-1.5957,-1.5958,0,0,0,0,0,0,0,0,0,0,0,0,0,-1.5937,-1.5926,-1.5958,-1.5949,-1.5949,-1.5967,-1.5967,-1.5968,-1.5948,-1.5947,-1.5946,-1.5945,-1.5956,-1.5957,-1.5959,-1.5986,0,0,-1.5963,-1.5963,0,0,0,0,0,0,0,0,-1.5937,-1.5939,-1.595,-1.595,-1.5949,-1.5955,-1.596,-1.5974,-1.5948,-1.5948,-1.5946,-1.5945,-1.5957,-1.5958,-1.5962,-1.5987,-1.5987,-1.5963,-1.5964,-1.5964,-1.5965,0,0,0,0,0,0,0,-1.5936,-1.5938,-1.5962,-1.5951,-1.595,-1.5946,-1.5946,-1.5962,-1.5958,-1.5948,-1.5947,-1.5948,-1.5956,-1.5961,-1.5962,-1.5987,-1.5963,-1.5964,-1.5965,-1.5965,-1.6037,-1.6038,0,0,0,0,0,0,-1.5936,-1.5937,-1.5961,-1.5962,-1.594,-1.5947,-1.5948,-1.5954,-1.5958,-1.5957,-1.5949,-1.5947,-1.5959,-1.5961,-1.5963,-1.5996,-1.5964,-1.5965,-1.5966,-1.6036,-1.6037,-1.6038,0,0,0,0,0,0,-1.5935,-1.5938,-1.5961,-1.5949,-1.5952,-1.5949,-1.5956,-1.5955,-1.5959,-1.5958,-1.5958,-1.5954,-1.5958,-1.5961,-1.5981,-1.5996,-1.5966,-1.5967,-1.6035,-1.6036,-1.6038,-1.6062,0,0,0,0,0,0,-1.5934,-1.5938,-1.5948,-1.595,-1.5953,-1.5978,-1.5957,-1.5956,-1.5961,-1.5959,-1.5963,-1.5963,-1.5958,-1.5979,-1.5982,-1.5997,-1.5968,-1.6033,-1.6035,-1.6037,-1.606,-1.6065,-1.6068,0,0,0,0,0,-1.5933,-1.5954,-1.5948,-1.5951,-1.5965,-1.5979,-1.5981,-1.5974,-1.5963,-1.5973,-1.5973,-1.5962,-1.5994,-1.5981,-1.5985,-1.6,-1.6032,-1.6035,-1.6037,-1.6058,-1.6064,-1.6068,0,0,0,0,0,0,-1.5954,-1.5954,-1.5948,-1.597,-1.5975,-1.5976,-1.5988,-1.598,-1.5989,-1.5986,-1.5979,-1.598,-1.6002,-1.6003,-1.5989,-1.6028,-1.6011,-1.6015,-1.6026,-1.6031,-1.6035,-1.6034,-1.5969,0,0,0,0,0,-1.5961,-1.5973,-1.5972,-1.5992,-1.5995,-1.5991,-1.5997,-1.5992,-1.5997,-1.5999,-1.6,-1.6006,-1.6017,-1.6024,-1.6034,-1.6061,-1.6062,-1.6074,-1.6078,-1.6081,-1.6084,-1.6099,-1.6104,-1.6047,-1.6047,-1.6047,0,0,-1.5976,-1.5978,-1.5985,-1.5996,-1.5999,-1.6012,-1.5993,-1.6007,-1.6016,-1.6001,-1.602,-1.6021,-1.6027,-1.6051,-1.6061,-1.6053,-1.61,-1.6084,-1.6087,-1.6088,-1.6102,-1.6107,-1.6112,-1.6048,-1.6048,-1.6048,0,0,-1.601,-1.6012,-1.6029,-1.6033,-1.6038,-1.6035,-1.604,-1.6042,-1.6043,-1.6062,-1.6051,-1.6063,-1.6082,-1.6087,-1.6092,-1.613,-1.6121,-1.6133,-1.6155,-1.6169,-1.6174,-1.6178,-1.6192,-1.6197,-1.6136,-1.6136,-1.6136,0,-1.6028,-1.6045,-1.6039,-1.6053,-1.6059,-1.6046,-1.6064,-1.6068,-1.6077,-1.6081,-1.6072,-1.6097,-1.61,-1.6125,-1.6134,-1.6138,-1.6144,-1.6132,-1.6174,-1.6178,-1.6181,-1.6194,-1.62,-1.6138,-1.6138,-1.6137,-1.6137,0,-1.6068,-1.608,-1.6094,-1.6102,-1.6109,-1.6125,-1.6122,-1.613,-1.6125,-1.6125,-1.6145,-1.6149,-1.616,-1.6165,-1.616,-1.619,-1.6185,-1.6175,-1.6157,-1.6188,-1.6201,-1.6205,-1.614,-1.6139,-1.6139,-1.6139,0,0,-1.6113,-1.6119,-1.6123,-1.6128,-1.6133,-1.6143,-1.616,-1.617,-1.6178,-1.6185,-1.6199,-1.6217,-1.6208,-1.6213,-1.6209,-1.6222,-1.6253,-1.6211,-1.6211,-1.6218,-1.6287,-1.6294,-1.63,-1.6247,-1.6248,-1.6249,-1.6286,0,-1.6146,-1.6174,-1.6169,-1.6196,-1.6208,-1.6197,-1.6212,-1.6217,-1.6218,-1.6229,-1.6229,-1.6242,-1.6229,-1.6233,-1.6245,-1.6246,-1.6266,-1.6244,-1.6261,-1.6261,-1.6259,-1.6306,-1.6313,-1.6348,-1.6291,-1.6292,-1.6292,0,-1.6188,-1.6197,-1.6225,-1.623,-1.6235,-1.6247,-1.6258,-1.6268,-1.6275,-1.6275,-1.6282,-1.6276,-1.6293,-1.6277,-1.6301,-1.6286,-1.6293,-1.6295,-1.6296,-1.6297,-1.6278,-1.6308,-1.6359,-1.6364,-1.63,-1.6299,-1.6298,0,-1.6219,-1.6237,-1.6257,-1.6261,-1.6267,-1.6276,-1.6279,-1.6285,-1.6292,-1.6302,-1.6307,-1.6318,-1.6325,-1.6334,-1.6332,-1.632,-1.6357,-1.634,-1.6358,-1.6358,-1.6365,-1.6365,-1.6418,-1.6371,-1.6371,-1.6371,-1.6371,0,-1.6256,-1.6274,-1.6271,-1.6282,-1.6303,-1.6298,-1.6318,-1.632,-1.6325,-1.6338,-1.633,-1.6343,-1.6339,-1.6352,-1.635,-1.6371,-1.6374,-1.6375,-1.6374,-1.6375,-1.6375,-1.6379,-1.6377,-1.6372,-1.6372,-1.6371,-1.6371,0,-1.6293,-1.6292,-1.6312,-1.6317,-1.6318,-1.6333,-1.6337,-1.6349,-1.6349,-1.6366,-1.6369,-1.637,-1.6385,-1.6384,-1.64,-1.6399,-1.6425,-1.6422,-1.6423,-1.6422,-1.644,-1.6438,-1.6497,-1.6504,-1.6453,-1.6453,-1.6453,0,-1.6317,-1.633,-1.6336,-1.6344,-1.6348,-1.6361,-1.6368,-1.6365,-1.6373,-1.6383,-1.6394,-1.6408,-1.6418,-1.6443,-1.6445,-1.6458,-1.6455,-1.6475,-1.6457,-1.6458,-1.6455,-1.6454,-1.6456,-1.6478,-1.6479,-1.6479,-1.6479,0,-1.6359,-1.6358,-1.6369,-1.638,-1.6389,-1.6398,-1.6406,-1.6413,-1.6411,-1.6421,-1.6435,-1.6444,-1.6461,-1.6475,-1.6488,-1.6492,-1.6486,-1.6485,-1.649,-1.6491,-1.6491,-1.6491,-1.6432,-1.6484,-1.6483,-1.6483,-1.6483,-1.6483,-1.639,-1.6402,-1.6408,-1.6421,-1.6427,-1.6435,-1.6446,-1.6448,-1.646,-1.6474,-1.6471,-1.6488,-1.6496,-1.6513,-1.6518,-1.6532,-1.6525,-1.6532,-1.6534,-1.6535,-1.6537,-1.6489,-1.6535,-1.6534,-1.6534,-1.6534,-1.6534,0,-1.6432,-1.6436,-1.6448,-1.6459,-1.647,-1.6463,-1.6472,-1.6481,-1.6496,-1.6504,-1.6515,-1.6532,-1.6547,-1.6551,-1.6565,-1.6575,-1.6573,-1.6579,-1.6578,-1.6579,-1.6543,-1.6537,-1.6581,-1.6581,-1.6581,-1.6581,-1.6581,-1.6581,-1.6455,-1.6475,-1.6475,-1.6498,-1.6502,-1.6518,-1.6524,-1.6532,-1.6538,-1.6558,-1.6569,-1.6572,-1.6579,-1.6594,-1.6607,-1.6608,-1.6613,-1.6621,-1.6621,-1.6586,-1.6582,-1.6577,-1.6572,-1.6622,-1.6622,-1.6656,-1.6656,-1.6656]},{"header":{"parameterUnit":"m.s-1","parameterCategory":1,"la1":30.2991,"la2":30.254,"lo1":-89.0895,"lo2":-89.0444,"dy":0.0017,"dx":0.0017,"nx":28,"ny":28,"refTime":"2025-05-01T09:00:00:Z","depth":0,"parameterNumber":3,"parameterNumberName":"V-component_of_WINDS"},"data":[0,0,0,0,0,0,0,0,0,0,0,0,0,0,0,0,0,0,0,0,0,0,0,0,0,0,0,0,0,0,0,0,0,0,0,0,0,0,0,0,0,0,0,0,0,0,0,0,0,0,0,0,0,0,0,0,0,0,6.1283,6.1283,0,6.1276,6.1276,6.1275,6.126,6.126,6.126,6.1259,6.1251,6.1251,6.1251,0,0,0,0,0,0,0,0,0,0,0,0,0,6.1284,6.1284,6.1283,6.1283,6.1283,6.1276,6.1276,6.1275,6.126,6.126,6.1259,6.1259,6.1251,6.1251,6.1251,0,0,0,0,0,0,0,0,0,0,0,0,0,6.1281,6.1284,6.1283,6.1274,6.1274,6.1276,6.1276,6.1275,6.126,6.126,6.1259,6.1259,6.1251,6.1251,6.1251,6.1261,0,0,6.1252,6.1252,0,0,0,0,0,0,0,0,6.1281,6.1281,6.1276,6.1275,6.1274,6.1268,6.1273,6.1271,6.126,6.1265,6.1259,6.1259,6.1257,6.1257,6.1256,6.1261,6.126,6.1252,6.1252,6.1252,6.1252,0,0,0,0,0,0,0,6.1281,6.1281,6.128,6.1276,6.1275,6.1271,6.127,6.1272,6.1264,6.1265,6.1264,6.1263,6.1257,6.1256,6.1256,6.126,6.1252,6.1252,6.1252,6.1252,6.1272,6.1273,0,0,0,0,0,0,6.1283,6.1281,6.128,6.128,6.1276,6.1271,6.127,6.1271,6.1264,6.1262,6.1263,6.1262,6.1256,6.1256,6.1256,6.1267,6.1252,6.1252,6.1252,6.1272,6.1272,6.1273,0,0,0,0,0,0,6.1283,6.1283,6.1281,6.128,6.128,6.1272,6.1272,6.1271,6.127,6.1263,6.1261,6.1265,6.1256,6.1256,6.126,6.1266,6.1252,6.1252,6.1271,6.1272,6.1273,6.1289,0,0,0,0,0,0,6.1283,6.1283,6.1286,6.128,6.128,6.1285,6.1273,6.1271,6.1271,6.1269,6.1263,6.1262,6.1256,6.126,6.126,6.1266,6.1252,6.1271,6.1272,6.1272,6.1288,6.129,6.1292,0,0,0,0,0,6.1283,6.1291,6.1287,6.1287,6.1284,6.1285,6.1285,6.1277,6.1271,6.1275,6.127,6.1262,6.1266,6.126,6.126,6.1267,6.127,6.1271,6.1272,6.1287,6.1289,6.1292,0,0,0,0,0,0,6.1297,6.129,6.1285,6.1291,6.1289,6.1283,6.1287,6.1281,6.128,6.1278,6.1269,6.1268,6.1274,6.1271,6.1265,6.1276,6.1267,6.1268,6.1277,6.128,6.1282,6.1283,6.1252,0,0,0,0,0,6.1301,6.1303,6.1297,6.1303,6.1302,6.1295,6.1295,6.129,6.1287,6.1286,6.1281,6.1279,6.1279,6.1279,6.1279,6.1287,6.1286,6.1292,6.1294,6.1296,6.1297,6.1301,6.1303,6.1277,6.1277,6.1276,0,0,6.1309,6.1306,6.1307,6.1306,6.1303,6.1305,6.1294,6.1297,6.1298,6.1286,6.129,6.1287,6.1283,6.1289,6.1292,6.1287,6.1304,6.1297,6.1299,6.1298,6.1302,6.1305,6.1307,6.1277,6.1277,6.1277,0,0,6.1325,6.1323,6.1328,6.1326,6.1323,6.1318,6.1319,6.1314,6.1311,6.1315,6.1306,6.1308,6.1309,6.1307,6.1306,6.1322,6.1315,6.1322,6.1333,6.1338,6.134,6.1342,6.1347,6.1349,6.1324,6.1324,6.1324,0,6.1336,6.1339,6.1331,6.1334,6.1334,6.1324,6.1329,6.1327,6.1324,6.1324,6.1319,6.132,6.1317,6.1323,6.1327,6.1327,6.1328,6.1323,6.134,6.1342,6.1343,6.1349,6.1351,6.1324,6.1324,6.1324,6.1324,0,6.1352,6.1354,6.1358,6.1356,6.1356,6.136,6.1354,6.1355,6.135,6.1345,6.135,6.1346,6.1345,6.1346,6.1341,6.1351,6.1348,6.1342,6.1332,6.1347,6.1352,6.1354,6.1326,6.1325,6.1325,6.1325,0,0,6.1375,6.137,6.1371,6.137,6.1366,6.1368,6.1372,6.1372,6.1373,6.1371,6.1374,6.1376,6.137,6.1369,6.1363,6.1367,6.138,6.136,6.136,6.1364,6.1392,6.1396,6.1399,6.1376,6.1376,6.1377,6.1392,0,6.139,6.1397,6.139,6.1398,6.14,6.1391,6.1394,6.1392,6.1389,6.139,6.1386,6.1387,6.1379,6.1379,6.1382,6.1378,6.1386,6.1377,6.1378,6.1379,6.1379,6.1401,6.1406,6.1421,6.1394,6.1394,6.1394,0,6.1408,6.1408,6.1416,6.1412,6.1412,6.1416,6.1415,6.1416,6.1414,6.1411,6.1411,6.1404,6.1408,6.1399,6.1404,6.1398,6.1399,6.1397,6.1397,6.1397,6.1387,6.1401,6.1425,6.1428,6.1397,6.1397,6.1397,0,6.1424,6.1426,6.1431,6.1431,6.1426,6.1429,6.1427,6.1424,6.1425,6.1424,6.1424,6.1424,6.1424,6.1424,6.1418,6.1412,6.1424,6.1415,6.1422,6.1422,6.1424,6.1424,6.1448,6.1425,6.1425,6.1425,6.1425,0,6.1441,6.1447,6.1439,6.1442,6.1447,6.144,6.1446,6.1444,6.1441,6.1444,6.1436,6.1438,6.143,6.1432,6.1427,6.1432,6.1432,6.143,6.1429,6.1431,6.1431,6.143,6.1429,6.1425,6.1425,6.1425,6.1425,0,6.146,6.1455,6.146,6.1456,6.1455,6.146,6.1456,6.1459,6.1455,6.1458,6.1458,6.1453,6.1454,6.1448,6.1449,6.1446,6.1453,6.145,6.1454,6.1453,6.146,6.146,6.1485,6.1488,6.1463,6.1463,6.1463,0,6.1471,6.1475,6.1472,6.1473,6.1472,6.1474,6.1474,6.1468,6.1469,6.1467,6.147,6.1471,6.1471,6.1474,6.147,6.147,6.1467,6.1476,6.1467,6.1469,6.1467,6.1467,6.1467,6.1478,6.1478,6.1478,6.1479,0,6.1491,6.1489,6.149,6.1491,6.1491,6.1491,6.1491,6.1492,6.1485,6.1487,6.1489,6.1489,6.149,6.1491,6.1491,6.1489,6.1483,6.1482,6.1483,6.1485,6.1487,6.1486,6.1459,6.1481,6.1481,6.148,6.148,6.148,6.1507,6.151,6.1508,6.151,6.1509,6.1509,6.1511,6.1508,6.1509,6.151,6.1506,6.1509,6.1507,6.1506,6.1504,6.1506,6.1502,6.1505,6.1505,6.1506,6.1507,6.1487,6.1506,6.1506,6.1506,6.1506,6.1506,0,6.1526,6.1525,6.1526,6.1526,6.1528,6.1522,6.1521,6.1523,6.1525,6.1524,6.1525,6.1527,6.1529,6.1525,6.1526,6.1528,6.1525,6.1528,6.1528,6.1528,6.1511,6.1509,6.1531,6.1531,6.1531,6.1531,6.1531,6.1531,6.1536,6.1542,6.1539,6.1544,6.1542,6.1545,6.1545,6.1545,6.1544,6.1547,6.1548,6.1546,6.1544,6.1545,6.1546,6.1544,6.1545,6.1549,6.1547,6.1531,6.1529,6.1527,6.1525,6.1549,6.1549,6.1564,6.1564,6.1564]}]]